Find Starlink 3308

NORAD ID: 50846 Int'l Des: 2022-001 Owner: SPXS Country: US Constellation: starlink operational
LEOCIRCULAR

实时位置

正在加载3D地球...

关于 Starlink 3308

正在加载描述...

即将过境

Passes for default location (London). Set your location on the main map for personalized predictions.

高度历史

Loading altitude history...

两行轨道根数

1 50846U 22001AV 26105.43562635 .00004916 00000-0 32697-3 0 9996
2 50846 53.2178 14.2783 0001366 92.1138 268.0010 15.08812704235818
Epoch: Apr 15, 2026 • Age: 20 hours

当前状态

高度 557.5 km
速度 7.58 km/s
星下点 -48.86°S, 55.11°W
发射日期 Jan 6, 2022
运行时间 4.2 years
类型 internet

技术详情

分类 Payload
质量 297.00 kg
干质量 275.00 kg
总质量 297.00 kg
长度 0.20 m
直径 2.80 m
跨度 9.00 m
形状 Box + pan
制造商 SPXS
平台类型 Starlink
阶段状态 In Orbit
所有者/国家 SPXS/US

Most Searched